Location: Argentine Mine
(37.9358°N, 107.7545°W)
Time: 15:38:55
(UTC+00:00)

Daily predictions for brighter satellites

Satellite Brightness Start Highest point End
(mag) Time Altitude Azimuth Time Altitude Azimuth Time Altitude Azimuth
Cosmos 1812 3.2 12:12:01 49° S 12:12:01 49° S 12:14:53 10° S
Cosmos 1151 Rocket 3.0 12:10:05 46° N 12:11:22 81° E 12:15:42 10° S
Cosmos 1503 Rocket 3.9 12:12:04 10° SSW 12:17:19 75° WNW 12:22:39 10° NNE
SL-8 R/B 4.4 12:16:55 38° NNW 12:18:06 46° NNE 12:22:41 10° E
Okean 3 Rocket 3.5 12:17:33 10° SSW 12:22:04 75° W 12:26:38 10° N
ATLAS 5 CENTAUR R/B 1.7 12:20:01 16° SSW 12:22:54 60° ESE 12:26:54 10° NE
Cosmos 1766 Rocket 3.4 12:19:46 10° SSW 12:24:03 60° W 12:28:20 10° N
BREEZE-M DEB 3.0 12:31:18 34° SSW 12:32:26 67° SE 12:38:33 10° NE
Cosmos 1328 Rocket 3.4 12:31:09 17° N 12:34:26 80° W 12:38:45 10° S
Cosmos 2180 Rocket 4.5 12:29:27 10° N 12:35:38 84° E 12:41:46 10° S
CENTAUR R/B 4.2 12:40:22 15° NNW 12:40:42 15° NNW 12:44:40 10° N
H-2A R/B 3.3 12:42:13 35° WSW 12:42:13 35° WSW 12:44:58 10° SW
Meteor 2-6 Rocket 4.0 12:37:19 10° NNW 12:42:39 63° W 12:47:58 10° S
Meteor 1-31 Rocket 2.8 12:39:45 10° N 12:43:35 57° WNW 12:47:26 10° SSW
SL-4 R/B 3.7 12:41:28 10° SSW 12:44:27 28° SE 12:47:35 10° ENE
COSMO-SKYMED 1 2.5 12:40:49 10° S 12:45:07 64° W 12:48:53 13° NNW
Envisat 3.2 12:42:04 10° N 12:46:55 47° WNW 12:51:45 10° SW
MOS 1-B Rocket 4.3 12:44:00 10° S 12:50:04 45° W 12:55:35 10° NNW
Cosmos 1833 4.2 12:45:51 15° NNW 12:50:39 69° WSW 12:56:21 10° S
Cosmos 2098 Rocket 4.4 12:54:27 22° NW 12:54:27 22° NW 12:57:16 10° NNW
Cosmos 1174 3.0 12:51:49 19° SW 12:53:47 57° WNW 12:56:46 10° NNE
Cosmos 1408 Rocket 3.5 12:51:58 10° SSW 12:56:12 58° W 13:00:27 10° N
CZ-4B R/B 4.4 12:52:17 10° N 12:56:31 42° WNW 13:00:42 10° SW
DNEPR-1 R/B 4.3 12:53:22 21° NW 12:56:44 55° WSW 13:02:43 10° SSE
Cosmos 2369 Rocket 3.6 13:03:39 16° NW 13:03:39 16° NW 13:06:48 10° NNW
Cosmos 1743 Rocket 3.5 13:01:51 10° S 13:06:14 90° WSW 13:10:37 10° N
ATLAS 3B R/B 2.5 13:03:10 10° SW 13:09:38 75° WNW 13:16:26 10° NNE
Landsat 5 3.9 13:05:21 10° S 13:09:40 46° W 13:13:59 10° NNW
CZ-4C R/B 2.9 13:07:45 10° S 13:10:48 49° W 13:13:49 10° NNW
Meteor 1-10 Rocket 4.4 13:06:07 10° NNW 13:11:26 49° W 13:16:45 10° SSW
Cosmos 2228 Rocket 4.1 13:09:41 10° N 13:14:04 49° E 13:18:28 10° SSE
COSMOS 2487 3.7 13:11:00 10° N 13:14:10 38° ENE 13:17:19 10° SE
DELTA 2 R/B (1) 3.6 13:10:34 16° W 13:15:05 75° N 13:20:39 10° E
SJ 16-02 1.5 13:11:02 10° SW 13:15:15 46° WNW 13:19:29 10° N
Cosmos 1602 4.0 13:11:59 10° S 13:15:45 71° E 13:19:33 10° NNE
CZ-2C R/B 3.3 13:12:58 10° SSW 13:17:53 34° W 13:22:45 10° NNW
Cosmos 1515 Rocket 3.8 13:14:35 10° NNW 13:18:46 46° W 13:22:53 10° SSW
Lacrosse 5 4.0 13:14:27 10° S 13:18:51 30° ESE 13:23:16 10° ENE
IRAS Rocket 4.2 13:14:55 10° SSE 13:20:26 81° WSW 13:25:57 10° NNW
Meteor 2-15 Rocket 4.5 13:18:18 10° NNW 13:24:15 58° W 13:30:10 10° S
FALCON 9 R/B 4.0 13:04:38 13° W 13:24:35 59° SSW 13:30:40 10° SE
NOAA 12 4.0 13:20:05 10° N 13:25:21 79° WNW 13:30:34 10° SSW
FengYun 1-2 T 4.2 13:26:11 10° NNE 13:31:42 87° WNW 13:37:11 10° SSW
Nadezhda 4 Rocket 4.3 13:27:35 10° SSW 13:33:22 42° WNW 13:39:16 10° N
Cosmos 1500 Rocket 4.0 13:29:43 10° SSW 13:33:54 40° W 13:38:07 10° N
USA 215 3.4 13:29:05 10° SE 13:35:37 81° NE 13:42:10 10° NW
Cosmos 1500 3.3 13:32:32 10° S 13:36:21 81° E 13:40:09 10° N
ADEOS 4.2 13:34:08 10° N 13:38:44 32° WNW 13:43:18 10° SW
Cosmos 2227 Rocket 4.2 13:34:26 10° N 13:38:59 24° ENE 13:43:32 10° ESE
Sich 1 2.9 13:34:54 10° S 13:39:11 81° W 13:43:28 10° N
Meteor PRIRODA 4.4 13:37:01 10° N 13:40:13 30° WNW 13:43:25 10° SW
Meteor 1-20 Rocket 4.3 13:36:57 10° SSW 13:42:25 58° WNW 13:48:01 10° N
EO 1 Delta rocket 4.3 13:36:29 10° N 13:42:31 90° ESE 13:47:24 10° S
CZ-4B R/B 3.3 13:39:18 10° N 13:42:31 32° WNW 13:45:46 10° SW
Cosmos 1656 4.1 13:38:02 10° S 13:43:24 68° ESE 13:48:48 10° NNE
AQUARIUS 4.1 13:41:11 10° N 13:45:42 80° WNW 13:50:10 10° SSW
Cosmos 1805 Rocket 3.7 13:41:50 10° SSW 13:46:07 51° W 13:50:23 10° N
H-2A R/B 2.1 13:42:05 10° S 13:46:17 64° WSW 13:50:37 10° NNW
BREEZE-M DEB (TANK) 3.6 13:37:35 10° NW 13:47:31 83° SW 13:50:42 10° SE
